Home   Weather   Langevåg   Past weeks

Flag for Norway Past Weather in Langevåg, Norway — Yesterday and Last 2 Weeks

Now
39 °F

Partly sunny.


Feels Like: 34 °F
Forecast: 30 / 39 °F
Wind: 8 mph from Northwest

Location: Alesund / Vigra

Current Time: Apr 23, 2017 at 6:18:17 pm

Latest Report: Apr 23, 2017 at 5:20 pm


Visibility: N/A

Pressure: 29.86 "Hg

Humidity: 75%

Dew Point: 32 °F

Location of LangevågLocation

Past Weather in Langevåg — Graph

°F

Langevåg Temperature Yesterday

Maximum temperature yesterday: 43 °F (at 11:20 am)
Minimum temperature yesterday: 34 °F (at 9:50 pm)
Average temperature yesterday: 39 °F

High & Low Weather Summary for the Past Weeks

 TemperatureHumidityPressure
High48 °F (Apr 8, 4:20 pm)100% (Apr 8, 10:20 pm)30.51 "Hg (Apr 8, 10:20 pm)
Low28 °F (Apr 14, 4:50 am)36% (Apr 15, 10:50 am)29.39 "Hg (Apr 12, 6:20 am)
Average40 °F76%29.87 "Hg
* Reported Apr 8 4:20 pm — Apr 23 4:50 pm, Langevåg, Weather by CustomWeather, © 2017

Note: Actual official high and low records may vary slightly from our data, if they occured in-between our weather recording intervals... More about our weather records

Advertising

Langevåg Weather History for the Previous 24 Hours

Scroll right to see more
 ConditionsComfort  
Time TempWeatherWind HumidityBarometerVisibility
4:50 pm
Sun, Apr 23
37 °FBroken clouds.7 mph87%29.89 "HgN/A
4:20 pm37 °FBroken clouds.9 mph87%29.89 "HgN/A
3:50 pm39 °FScattered showers. Scattered clouds.13 mph70%29.89 "HgN/A
3:20 pm39 °FScattered showers. Scattered clouds.14 mph75%29.89 "HgN/A
2:50 pm39 °FScattered showers. Scattered clouds.13 mph75%29.89 "HgN/A
2:20 pm39 °FScattered showers. Broken clouds.8 mph81%29.92 "HgN/A
1:50 pm39 °FScattered showers. Broken clouds.6 mph75%29.92 "HgN/A
1:20 pm39 °FSleet. Broken clouds.9 mph81%29.92 "HgN/A
12:50 pm37 °FScattered showers. Broken clouds.10 mph93%29.92 "HgN/A
12:20 pm34 °FSnow flurries. Broken clouds.16 mph93%29.95 "Hg5 mi
11:50 am37 °FSnow showers. Broken clouds.14 mph81%29.92 "HgN/A
11:20 am41 °FScattered clouds.9 mph53%29.92 "HgN/A
10:50 am41 °FScattered showers. Scattered clouds.10 mph57%29.92 "HgN/A
10:20 am39 °FScattered showers. Scattered clouds.10 mph56%29.95 "HgN/A
9:50 am39 °FPartly sunny.15 mph52%29.95 "HgN/A
9:20 am37 °FScattered showers. Partly sunny.13 mph65%29.92 "HgN/A
8:50 am37 °FScattered showers. Partly sunny.12 mph70%29.92 "HgN/A
8:20 am37 °FScattered clouds.12 mph65%29.95 "HgN/A
7:50 am37 °FScattered showers. Passing clouds.13 mph70%29.92 "HgN/A
7:20 am37 °FScattered showers. Scattered clouds.14 mph65%29.92 "HgN/A
6:50 am34 °FScattered showers. Broken clouds.7 mph93%29.92 "HgN/A
6:20 am34 °FDrizzle. Broken clouds.9 mph93%29.95 "HgN/A
5:50 am32 °FSnow flurries. Broken clouds.9 mph100%29.95 "HgN/A
5:20 am34 °FLight snow. Dense fog.8 mph93%29.95 "Hg1 mi
4:50 am34 °FSleet. Overcast.7 mph93%29.95 "HgN/A
4:20 am34 °FLight snow. Partly cloudy.15 mph93%29.95 "Hg1 mi
3:50 am36 °FPassing clouds.13 mph87%29.92 "HgN/A
3:20 am34 °FPassing clouds.8 mph93%29.92 "HgN/A
2:50 am34 °FPartly cloudy.8 mph93%29.92 "HgN/A
2:20 am34 °FSnow. Dense fog.15 mph93%29.95 "Hg1 mi
1:50 am34 °FPassing clouds.12 mph87%29.95 "HgN/A
1:20 am34 °FPartly cloudy.13 mph93%29.95 "HgN/A
12:50 am36 °FPartly cloudy.15 mph75%29.95 "HgN/A
12:20 am36 °FPassing clouds.14 mph81%29.95 "HgN/A
11:50 pm
Sat, Apr 22
36 °FPassing clouds.12 mph87%29.98 "HgN/A
11:20 pm36 °FPassing clouds.9 mph81%29.98 "HgN/A
10:50 pm36 °FScattered showers. Partly cloudy.16 mph81%29.98 "HgN/A
10:20 pm36 °FSprinkles. Partly cloudy.14 mph75%29.98 "HgN/A
9:50 pm34 °FScattered showers. Partly cloudy.5 mph93%29.98 "HgN/A
9:20 pm36 °FSprinkles. Broken clouds.21 mph81%29.98 "Hg4 mi
8:20 pm37 °FBroken clouds.21 mph75%29.98 "HgN/A
7:50 pm39 °FPartly sunny.20 mph65%29.98 "HgN/A
7:20 pm39 °FSprinkles. Broken clouds.21 mph75%29.98 "HgN/A
6:50 pm37 °FScattered showers. Broken clouds.10 mph93%29.98 "HgN/A
6:20 pm36 °FScattered showers. Broken clouds.13 mph100%29.98 "Hg6 mi
Weather by CustomWeather, © 2017

See weather overviewHow to use our weather pages